Find Starlink 4667

NORAD ID: 53707 Int'l Des: 2022-107 Owner: SPXS Country: US Constellation: starlink operational
LEOCIRCULAR

リアルタイム位置

3D地球を読み込み中...

Starlink 4667について

説明を読み込み中...

次回通過

Passes for default location (London). Set your location on the main map for personalized predictions.

高度履歴

Loading altitude history...

軌道要素

1 53707U 22107H 26126.57999933 .00001327 00000-0 10146-3 0 9993
2 53707 53.2178 329.2548 0001362 79.5608 280.5538 15.08841785203801
Epoch: May 6, 2026 • Age: 9 hours

現在のステータス

高度 559.2 km
速度 7.58 km/s
衛星直下点 -53.27°S, 31.56°E
打ち上げ日 Sep 5, 2022
運用期間 3.6 years
タイプ internet

技術仕様

分類 Payload
質量 305.00 kg
乾燥質量 290.00 kg
総質量 305.00 kg
長さ 0.20 m
直径 2.80 m
スパン 9.00 m
形状 Box + pan
製造者 SPXS
バスタイプ Starlink
フェーズステータス In Orbit
所有者/国 SPXS/US

Most Searched